Regional Weather Roundup
Issued by NWS Mt. Holly, NJ

Home | Current Version | Previous Version | Text Only | Print | Product List | Glossary On
Versions: 1 2 3 4 5 6 7 8 9 10 11 12 13 14 15 16 17 18 19 20 21 22 23 24 25 26 27 28 29 30 31 32 33 34 35 36 37 38 39 40 41 42 43 44 45 46 47 48 49 50
000
ASUS41 KPHI 011912
RWRPHI

REGIONAL WEATHER ROUNDUP
NATIONAL WEATHER SERVICE MOUNT HOLLY NJ
300 PM EDT SUN MAY 01 2016

NOTE:  "FAIR" INDICATES FEW OR NO CLOUDS BELOW 12,000 FEET WITH NO
SIGNIFICANT WEATHER AND/OR OBSTRUCTIONS TO VISIBILITY.

 * = STATION DOES NOT REPORT PRECIPITATION (E.G. RAIN, SNOW, ETC.)
        OR FOG.

NJZ015>026-012000-
SOUTHERN NEW JERSEY

CITY           SKY/WX    TMP DP  RH WIND       PRES   REMARKS
POMONA         RAIN      51  50  96 E8        30.10F FOG
WILDWOOD*      CLOUDY   N/A N/A N/A E8        30.09F
MILLVILLE      RAIN      51  50  96 E5        30.11R FOG
WRIGHTSTOWN    LGT RAIN  50  48  93 E6        30.10S
MOUNT HOLLY    RAIN      50  49  96 E7        30.11F FOG
TRENTON        CLOUDY    50  47  89 SE8       30.13R

$$
NJZ001>014-012000-
NORTHERN NEW JERSEY

CITY           SKY/WX    TMP DP  RH WIND       PRES   REMARKS
SUSSEX         CLOUDY    48  44  86 E3        30.13S
ANDOVER*         N/A     47  44  90 VRB5      30.12S
MORRISTOWN     DRIZZLE   48  45  87 S6        30.14F
NEWARK         LGT RAIN  45  44  97 SE6G16    30.15F
TETERBORO      CLOUDY    48  43  81 SE10      30.13F
CALDWELL       CLOUDY    48  43  82 VRB6      30.14F
SOMERVILLE     CLOUDY    50  47  89 SE5       30.11F
ALLAIRE*       LGT RAIN  48  47  96 E9        30.14F FOG
TOMS RIVER*    CLOUDY    48  45  87 E5        30.13S

$$
PAZ043-044-047-054-055-060>062-066>071-012000-
EASTERN PENNSYLVANIA

CITY           SKY/WX    TMP DP  RH WIND       PRES   REMARKS
PHILADELPHIA   LGT RAIN  52  48  86 SE6       30.12F
NORTH PHILA    CLOUDY    52  49  89 E7        30.13F FOG
BLUE BELL*     CLOUDY    48  46  93 E3        30.10S
DOYLESTOWN     CLOUDY    48  47  96 VRB3      30.11F
QUAKERTOWN*    CLOUDY    48  46  93 SE7       30.11F
PERKASIE*      CLOUDY    48  48 100 SE5       30.11F
POTTSTOWN      CLOUDY    49  48  97 VRB5      30.10F
LANCASTER      CLOUDY    49  48  97 SE9       30.09S
COATESVILLE    CLOUDY    48  48 100 SE5       30.10S
READING        CLOUDY    50  45  83 SE6       30.09F
ALLENTOWN      LGT RAIN  49  46  90 SE3       30.11F FOG
MOUNT POCONO   LGT RAIN  41  39  93 SE8       30.07S VSB 1
HAZLETON       LGT RAIN  43  43 100 SE6       30.09F
LEHIGHTON      RAIN      46  45  93 CALM      30.11F
WILKES BARRE   CLOUDY    46  43  89 CALM      30.07F

$$
DEZALL-MDZ008-012-015-019-020-012000-
DELAWARE AND EASTERN MARYLAND

CITY           SKY/WX    TMP DP  RH WIND       PRES   REMARKS
WILMINGTON     LGT RAIN  52  49  89 SE10      30.10F FOG
DOVER          LGT RAIN  52  52 100 E7        30.10S FOG
GEORGETOWN     LGT RAIN  52  52 100 VRB3      30.09S FOG
EASTON         CLOUDY   N/A N/A N/A SE3       30.12
PATUXENT       CLOUDY    57  54  89 SE10      30.05F
OCEAN CITY     LGT RAIN N/A N/A N/A E6        30.08F
WALLOPS ISLAND LGT RAIN  57  54  89 MISG      30.08F
CAMBRIDGE      CLOUDY    54  52  94 E6        30.06F
SALISBURY      CLOUDY    55  53  93 SE8       30.07S

$$
PAZ001-021-NYZ056-072-MDZ011-DCZ001-012000-
OTHER NEARBY LOCATIONS

CITY           SKY/WX    TMP DP  RH WIND       PRES   REMARKS
HARRISBURG     CLOUDY    53  48  83 SE9       30.06F
STATE COLLEGE  CLOUDY    50  48  93 E6        30.01S FOG
WILLIAMSPORT   CLOUDY    48  45  89 E10       30.05F
BINGHAMTON     CLOUDY    43  41  93 S10G20    30.01F
NEW YORK CITY  CLOUDY    48  42  80 VRB6      30.17S
BALTIMORE      CLOUDY    54  51  90 SE7       30.07F
WASHINGTON DC  CLOUDY    58  54  86 SE3       30.06F

$$



USA.gov is the U.S. government's official web portal to all federal, state and local government web resources and services.